Ardmore, OK

1:49 PM CDT on October 21, 2017 (GMT -0500)
Ardmore Municipal

Weather History for KADM - May, 2013

Change the Weather History Date:

Tuesday, May 14, 2013

  Actual Average Record
Temperature  
Mean Temperature 72 °F -  
Max Temperature 92 °F 78 °F 92 °F (2013)
Min Temperature 52 °F 59 °F 44 °F (2000)
Cooling Degree Days 6    
Growing Degree Days 22 (Base 50)    
Moisture  
Dew Point 44 °F    
Average Humidity 53    
Maximum Humidity 83    
Minimum Humidity 14    
Precipitation  
Precipitation 0.00 in - - ()
Sea Level Pressure  
Sea Level Pressure 30.07 in    
Wind  
Wind Speed 5 mph (SSW)    
Max Wind Speed 16 mph    
Max Gust Speed 22 mph    
Visibility 10 miles    
Events      
Averages and records for this station are not official NWS values.
T = Trace of Precipitation, MM = Missing Value Source: NWS Daily Summary

Daily Weather History Graph

Daily Weather History Graph

Search for Another Location

Airport or City:

Trip Planner

Search our weather history database for the weather conditions in past years. The results will help you decide how hot, cold, wet, or windy it might be!

Date:

Astronomy

May. 14, 2013 Rise Set
Actual Time 6:26 AM CDT 8:22 PM CDT
Civil Twilight 5:58 AM CDT 8:50 PM CDT
Nautical Twilight 5:25 AM CDT 9:24 PM CDT
Astronomical Twilight 4:49 AM CDT 10:00 PM CDT
Moon 10:06 AM CDT (5/14) No Moon Set
Length of Visible Light 14h 51m
Length of Day
13h 56m
Waxing Crescent, 19% of the Moon is Illuminated
May 14
Waxing Crescent
May 17
First Quarter
May 24
Full
May 31
Last Quarter
Jun 8
New

Hourly Weather History & Observations

Time (CDT) Temp. Dew Point Humidity Pressure Visibility Wind Dir Wind Speed Gust Speed Precip Events Conditions
12:15 AM 73.4 °F 39.6 °F 29% 30.08 in 10.0 mi SSW 11.5 mph 17.3 mph N/A   Clear
12:35 AM 72.9 °F 39.9 °F 30% 30.08 in 10.0 mi SW 8.1 mph 11.5 mph N/A   Clear
12:55 AM 72.1 °F 40.1 °F 31% 30.08 in 10.0 mi SW 8.1 mph - N/A   Clear
1:15 AM 71.6 °F 40.6 °F 33% 30.08 in 10.0 mi SW 8.1 mph - N/A   Clear
1:35 AM 70.9 °F 41.2 °F 34% 30.08 in 10.0 mi SSW 5.8 mph - N/A   Clear
1:55 AM 69.8 °F 41.7 °F 36% 30.08 in 10.0 mi SW 4.6 mph - N/A   Clear
2:15 AM 68.2 °F 42.1 °F 39% 30.07 in 10.0 mi SW 3.5 mph - N/A   Clear
2:35 AM 66.4 °F 42.6 °F 42% 30.07 in 10.0 mi Calm Calm - N/A   Clear
2:55 AM 63.9 °F 43.5 °F 48% 30.07 in 10.0 mi Calm Calm - N/A   Clear
3:15 AM 60.8 °F 46.0 °F 58% 30.07 in 10.0 mi Calm Calm - N/A   Clear
3:35 AM 59.2 °F 46.6 °F 63% 30.07 in 10.0 mi Calm Calm - N/A   Clear
3:55 AM 58.8 °F 46.6 °F 64% 30.06 in 10.0 mi Calm Calm - N/A   Clear
4:15 AM 56.8 °F 46.2 °F 68% 30.07 in 10.0 mi Calm Calm - N/A   Clear
4:35 AM 56.5 °F 46.9 °F 70% 30.07 in 10.0 mi Calm Calm - N/A   Clear
4:55 AM 54.9 °F 47.3 °F 76% 30.07 in 10.0 mi Calm Calm - N/A   Clear
5:15 AM 54.7 °F 48.0 °F 78% 30.07 in 10.0 mi Calm Calm - N/A   Clear
5:35 AM 53.4 °F 46.2 °F 77% 30.07 in 10.0 mi Calm Calm - N/A   Clear
5:55 AM 52.7 °F 44.6 °F 74% 30.08 in 10.0 mi Calm Calm - N/A   Clear
6:15 AM 52.9 °F 47.8 °F 83% 30.08 in 10.0 mi Calm Calm - N/A   Clear
6:35 AM 52.2 °F 46.8 °F 82% 30.08 in 10.0 mi Calm Calm - N/A   Clear
1:55 PM 91.4 °F 35.6 °F 14% 30.04 in 10.0 mi South 16.1 mph 21.9 mph N/A   Clear
11:35 PM 74.8 °F 49.1 °F 40% 29.99 in 10.0 mi South 10.4 mph 18.4 mph N/A   Clear
11:55 PM 74.5 °F 50.0 °F 42% 30.00 in 10.0 mi SSE 9.2 mph - N/A   Clear